Location: Akdamlar
(36.8729°N, 30.5187°E)
Time: 18:48:13
(UTC+00:00)

H-2A R/B - Pass Details

Date: 18 September 2020
Orbit: 734 x 836 km, 98.2° (Epoch: 25 October)

Event Time Altitude Azimuth Distance (km) Brightness Sun altitude
Rises 17:29:56 0° 178° (S) 3,148 5.0 -18.4°
Reaches altitude 10° 17:32:14 10° 182° (S) 2,234 4.3 -18.9°
Maximum altitude 17:37:02 54° 260° (W) 901 2.6 -19.8°
Drops below altitude 10° 17:41:56 10° 338° (NNW) 2,288 5.0 -20.7°
Sets 17:44:20 0° 343° (NNW) 3,231 5.8 -21.2°
